Location: City of Moscow
(46.7306°N, 116.9989°W)
Time: 13:36:30
(UTC+00:00)

Cosmos 1626 Rocket - Pass Details

Date: 19 March 2026
Orbit: 595 x 624 km, 82.5° (Epoch: 18 April)

Event Time Altitude Azimuth Distance (km) Brightness Sun altitude
Rises 12:10:38 0° 348° (NNW) 2,892 7.1 -18.0°
Reaches altitude 10° 12:12:53 10° 346° (NNW) 1,977 6.2 -17.6°
Maximum altitude 12:17:14 70° 264° (W) 651 3.4 -16.9°
Drops below altitude 10° 12:21:30 10° 181° (S) 1,943 5.9 -16.2°
Sets 12:23:42 0° 179° (S) 2,837 6.8 -15.9°
